Printer-friendly version

IAU Minor Planet Center

Minor Planet Center

MPEC 2006-N06 : S/2006 S 7

The following Minor Planet Electronic Circular may be linked-to from your own Web pages, but must not otherwise be redistributed electronically.


Read MPEC 2006-N05 Read MPEC 2006-N07


M.P.E.C. 2006-N06                                Issued 2006 July 6, 21:21 UT

     The Minor Planet Electronic Circulars contain information on unusual
         minor planets and routine data on comets.  They are published
   on behalf of Commission 20 of the International Astronomical Union by the
          Minor Planet Center, Smithsonian Astrophysical Observatory,
                          Cambridge, MA 02138, U.S.A.

                  Supported in part by the Brinson Foundation
                  Supported in part by the TABASGO Foundation
             Prepared using the Tamkin Foundation Computer Network

                              MPC@CFA.HARVARD.EDU
          URL http://cfa-www.harvard.edu/iau/mpc.html  ISSN 1523-6714

                                  S/2006 S 7

                           Revision to MPEC 2006-M45

Additional Observations:
    SK06S070  C2004 12 12.37964 07 48 31.96 +20 55 37.9                 EN006568
    SK06S070  C2004 12 12.41589 07 48 31.41 +20 55 39.5                 EN006568
    SK06S070  C2004 12 14.59009 07 47 57.92 +20 57 12.3          25.6 R EN006568
    SK06S070  C2004 12 14.61432 07 47 57.53 +20 57 13.5                 EN006568
    SK06S070  C2005 01 05.63598 07 41 11.39 +21 15 24.6          25.3 R EN006568
    SK06S070  C2005 01 05.65824 07 41 10.91 +21 15 25.8                 EN006568

Observer details:
568 Mauna Kea.  Observers D. C. Jewitt, S. S. Sheppard, J. Kleyna.  Measurer
    S. S. Sheppard.  Subaru 8.2-m reflector + CCD.

Orbital elements:
S/2006 S 7
Epoch 2006 Mar. 6.0 TT = JDT 2453800.5                  MPC
M  50.55282              (2000.0)            P               Q
n   0.28977118     Peri.  329.28906     +0.30129263     -0.92755399
a   0.1489922      Node   257.60380     -0.82241726     -0.37010488
e   0.3688000      Incl.  166.91867     -0.48254803     +0.05163313
P   3.40           H   15.8           P/d  1242.36
Residuals in seconds of arc
041212 568  0.3+  0.0     060105 568  0.5-  0.0     060202 568  0.4+  0.2+
041212 568  0.3+  0.0     060105 568  0.3+  0.1+    060202 568  0.1+  0.4-
041214 568  0.0   0.2-    060106 568  0.2-  0.2-    060307 568  0.1-  0.1-
041214 568  0.0   0.0     060106 568  0.2+  0.0     060307 568  0.3-  0.1-
050105 568  0.2-  0.1+    060201 568  0.2-  0.1+    060429 568  0.2+  0.0
050105 568  0.5-  0.1+    060201 568  0.3+  0.2+    060429 568  0.2-  0.1+

Brian G. Marsden             (C) Copyright 2006 MPC           M.P.E.C. 2006-N06

Read MPEC 2006-N05 Read MPEC 2006-N07


Our Web policy. Index to the CBAT/MPC/ICQ pages.


Valid HTML 4.01!